CAPE
0 0 0 0 0 0 0 0 35 26 2 9 0 0 0 0 167 1744 1829 1497 998 1642 1594 1341 1050 1087 1222 1384 1178 667 281 228 127 0 34 228 197 461 776 862 636 484 374 131 8 0 0 0 0
0 0 0 0 0 0 0 0 51 1 37 0 0 0 0 69 1236 2007 2109 1151 1274 1899 1794 1687 1162 998 1142 1297 1329 816 532 461 147 7 126 193 317 515 701 800 769 569 263 33 0 0 4 0 0
0 0 0 0 0 0 0 14 36 8 0 0 0 0 0 61 1711 1911 2423 1275 1453 1776 1726 1930 1198 1051 1235 1434 1321 983 779 595 184 65 166 259 428 414 437 543 721 560 137 0 0 0 0 0 0
0 0 0 0 0 0 0 0 0 0 0 0 0 0 0 1023 970 1954 1920 1264 1658 1591 1420 1769 1129 1013 1197 1417 1306 947 837 558 187 125 283 348 354 346 263 354 399 221 0 0 0 16 0 21 69
0 0 0 0 0 0 0 0 0 0 0 0 0 0 26 2294 2198 1969 1443 1496 1435 1164 1540 1641 1070 1023 1229 1457 1360 962 882 591 317 289 393 319 307 248 240 154 85 5 0 0 0 43 0 0 0
0 0 0 0 0 0 0 0 0 0 0 0 0 0 181 2323 2243 1575 1560 1588 1160 941 1511 1167 1105 1033 1174 1255 1193 996 960 835 626 621 532 347 239 229 211 100 52 41 0 0 4 25 4 0 0
0 0 0 0 0 0 0 0 0 0 0 0 0 39 646 1674 2170 1701 1853 1712 1299 939 1193 927 668 978 977 1003 1020 1027 927 890 808 764 586 351 257 215 180 90 53 110 28 0 0 9 2 0 6
0 0 0 0 0 0 0 0 0 0 0 0 0 0 52 2057 2262 1930 2224 1878 1426 1057 995 813 442 460 457 721 798 842 883 891 804 689 424 323 301 273 174 70 41 74 0 0 0 0 0 0 0
0 0 0 0 0 0 0 0 0 0 0 0 0 0 0 156 2237 1998 2043 1883 1448 1122 1018 804 620 409 187 210 639 503 486 401 279 252 321 234 70 213 331 50 128 8 23 3 0 0 0 0 0
0 0 0 0 0 0 0 0 0 0 0 0 0 0 0 0 1715 2015 2055 1909 1538 1146 994 815 749 561 288 260 697 224 152 98 101 107 329 114 22 100 38 54 45 157 68 67 23 0 0 0 0
0 0 0 0 0 0 0 0 0 0 0 0 0 0 0 122 992 1472 1678 1603 1430 1172 1039 806 969 747 405 251 939 247 254 177 248 275 517 126 46 80 21 147 226 304 122 71 46 79 49 1 0
0 0 0 0 0 0 0 0 0 0 0 0 0 0 0 0 636 1090 1179 1106 1076 1104 1036 907 1370 1207 840 398 760 369 371 376 507 646 868 560 575 464 146 2 23 123 49 81 33 21 38 47 41
0 0 0 0 0 0 0 0 0 0 0 0 0 0 0 0 0 636 1694 1048 520 713 523 585 1209 1329 1312 986 710 671 541 625 663 815 1055 1135 936 968 960 685 463 278 223 136 245 185 155 180 249
0 0 0 0 0 0 0 0 0 0 0 0 0 0 0 0 0 0 175 657 794 1064 1065 1002 1224 2046 1931 1419 989 956 980 915 974 810 985 1195 1123 1087 950 1051 877 745 637 529 508 548 622 714 668
0 0 0 0 0 0 0 0 0 0 0 0 0 0 0 0 0 0 0 0 171 1402 825 590 2010 2381 2464 2120 1520 1319 1066 1098 1075 1032 1320 1561 1646 1525 1446 1079 1062 871 925 1017 1228 1400 1340 1271 1141
0 0 0 0 0 0 0 0 0 0 0 0 0 0 0 0 0 0 0 0 0 0 210 2327 2627 2691 2639 2367 2079 1863 1588 1208 1238 1174 1459 1526 1766 1740 1822 1399 1197 1389 1775 1495 1666 1559 1666 1588 1168
0 0 0 0 0 0 0 0 0 0 0 0 0 0 0 0 0 0 0 0 0 0 0 680 2175 2193 2683 2111 2170 1742 1358 417 1336 1889 1866 2063 1954 1919 1809 1708 1696 2128 1569 1853 1486 1819 1605 1603 1548
0 0 0 0 0 0 0 0 0 0 0 0 0 0 0 0 0 0 20 8 29 76 120 108 1040 1729 2669 2399 2702 2282 2048 2043 2208 2135 1859 2337 2202 1919 2234 2031 2111 2380 1720 1836 1314 1354 1235 1057 744
0 0 0 0 0 0 0 0 0 0 0 0 0 0 0 0 0 3 55 88 66 4 214 321 1559 2517 2549 2416 2012 2408 2272 2508 2207 2334 2239 2195 1610 1647 2003 2396 2123 2242 1538 708 820 605 272 151 106
0 0 0 0 0 0 0 0 0 0 0 0 0 0 0 0 0 52 65 75 46 238 180 210 1433 2452 2772 1528 1890 1855 2183 1872 2140 2472 2393 2252 1909 1938 2158 1786 701 250 195 78 102 195 54 0 0
0 0 0 0 0 0 0 0 0 0 0 0 0 0 0 0 2 38 127 168 143 352 538 386 466 1756 2210 2398 2750 2708 2688 2266 1932 1557 1162 981 561 362 317 231 160 59 39 0 3 13 9 0 0
0 0 0 0 0 0 9 0 11 0 0 0 0 0 1 9 5 24 82 235 173 117 127 12 167 1607 3034 2894 2196 2042 1660 1111 331 70 54 107 91 47 33 65 41 51 24 13 2 0 0 0 0
0 0 0 0 0 0 0 1 8 2 0 0 0 0 6 4 10 57 125 198 287 363 318 418 758 2415 2256 2470 2395 1721 867 275 101 34 191 107 227 167 103 55 73 91 94 61 210 80 47 2 0
0 0 0 0 0 0 0 27 27 21 4 2 0 0 8 16 20 46 118 192 357 771 1073 1674 1456 878 781 611 702 774 385 342 162 198 178 67 26 90 31 13 14 12 97 72 44 61 138 112 56
0 0 0 0 0 0 15 27 1 2 0 4 0 10 0 41 103 133 269 361 619 964 997 757 578 471 303 152 159 197 184 141 126 81 22 36 3 0 0 0 0 0 0 4 4 8 50 91 72
0 0 0 11 8 17 14 23 34 4 0 0 13 30 40 107 182 304 401 540 704 786 769 468 326 162 110 69 25 35 14 0 0 0 0 0 0 0 0 0 0 0 0 0 0 0 0 0 0
3 0 0 15 5 19 10 12 93 27 1 0 36 107 180 233 292 315 421 368 456 491 428 342 160 53 12 3 7 1 0 0 0 0 0 0 0 0 0 0 0 0 0 0 0 0 0 0 0
0 6 7 5 15 54 30 29 12 3 3 1 14 106 226 301 344 394 359 298 246 155 106 72 48 6 0 0 0 0 0 0 0 0 0 0 0 0 0 0 0 0 0 0 1 1 3 7 4
0 1 29 34 4 1 33 9 25 36 28 4 49 159 218 211 159 175 171 112 34 4 1 0 0 0 0 0 0 0 0 0 0 0 0 0 0 0 0 0 0 0 0 1 3 6 6 5 6
9 12 59 79 49 41 40 45 1 0 12 82 117 201 174 113 85 29 1 0 0 0 0 0 0 0 0 0 0 0 0 0 0 0 0 0 0 0 0 0 1 1 2 6 9 5 9 7 7
CIN
0 0 0 0 0 0 0 0 -7 -4 -5 -4 0 0 0 0 -8 -16 -69 -134 -166 -234 -311 -344 -359 -307 -243 -175 -172 -227 -305 -321 -360 0 -406 -250 -257 -141 -42 -30 -66 -78 -94 -176 -258 0 0 0 0
0 0 0 0 0 0 0 0 -7 -6 -3 0 0 0 0 -6 -16 -31 -60 -147 -146 -244 -282 -273 -356 -317 -261 -207 -170 -204 -220 -223 -312 -500 -327 -258 -189 -122 -60 -42 -55 -74 -115 -177 0 0 -81 0 0
0 0 0 0 0 0 0 -7 -10 -4 0 0 0 0 0 -4 -12 -17 -86 -148 -175 -245 -273 -248 -362 -328 -261 -200 -175 -196 -198 -181 -275 -388 -256 -191 -122 -132 -110 -79 -60 -74 -149 0 0 0 0 0 0
0 0 0 0 0 0 0 -1 0 0 0 0 0 0 0 -22 -37 -33 -139 -152 -206 -232 -244 -294 -374 -340 -274 -223 -193 -205 -191 -220 -278 -277 -189 -155 -136 -118 -139 -102 -106 -133 0 0 0 -218 0 -191 -171
0 0 0 0 0 0 0 0 0 0 0 0 0 0 -2 -28 -43 -65 -151 -146 -192 -228 -198 -285 -367 -326 -261 -203 -187 -206 -181 -206 -266 -254 -199 -169 -139 -149 -122 -167 -216 -311 0 0 0 -172 0 0 0
0 0 0 0 0 0 0 0 0 0 0 0 0 0 -6 -32 -38 -85 -110 -114 -156 -209 -193 -315 -349 -315 -252 -206 -189 -186 -166 -157 -172 -158 -162 -200 -188 -166 -147 -197 -222 -225 0 0 -66 -199 -108 0 0
0 0 0 0 0 0 0 0 0 0 0 0 0 -7 -11 -6 -16 -47 -62 -69 -114 -164 -198 -308 -366 -305 -276 -241 -200 -170 -157 -150 -150 -131 -152 -199 -212 -201 -192 -225 -230 -192 -241 0 0 -241 -54 0 -263
0 0 0 0 0 0 0 0 0 0 0 0 0 0 -17 -16 -39 -21 -16 -23 -53 -114 -152 -241 -338 -354 -342 -269 -262 -215 -185 -152 -148 -138 -182 -204 -194 -186 -209 -248 -251 -256 0 0 0 0 0 0 0
0 0 0 0 0 0 0 0 0 0 0 0 0 0 0 -12 -4 -5 -2 -4 -8 -53 -81 -167 -225 -296 -350 -331 -268 -298 -291 -273 -267 -249 -224 -244 -290 -200 -150 -261 -181 -259 -291 -107 0 0 0 0 0
0 0 0 0 0 0 0 0 0 0 0 0 0 0 0 0 -2 -3 -2 -3 -3 -25 -35 -76 -156 -199 -239 -243 -196 -326 -331 -337 -315 -282 -176 -259 -289 -180 -217 -209 -260 -179 -240 -249 -307 0 0 0 0
0 0 0 0 0 0 0 0 0 0 0 0 0 0 0 -7 -2 -3 -3 -6 -4 -6 -14 -26 -95 -124 -160 -146 -103 -245 -227 -234 -194 -164 -99 -190 -201 -149 -219 -116 -115 -106 -206 -207 -226 -192 -258 -283 0
0 0 0 0 0 0 0 0 0 0 0 0 0 0 0 0 -4 -5 -5 -2 -4 -5 -8 -17 -35 -49 -62 -85 -72 -137 -114 -114 -79 -51 -16 -41 -27 -28 -86 -19 -158 -120 -155 -124 -164 -166 -138 -142 -148
0 0 0 0 0 0 0 0 0 0 0 0 0 0 0 0 0 -22 -25 -71 -104 -3 -53 -55 -27 -31 -15 -28 -36 -28 -29 -24 -23 -14 -2 -1 -2 -1 -2 -2 -4 -25 -22 -38 -25 -27 -28 -45 -46
0 0 0 0 0 0 0 0 0 0 0 0 0 0 0 0 0 0 -95 -50 -54 -23 -3 -2 -2 -2 -10 -19 -18 -15 -2 -4 -2 -2 -3 -3 -3 -1 -2 -2 -1 -2 -2 -2 -3 -2 -2 -2 -2
0 0 0 0 0 0 0 0 0 0 0 0 0 0 0 0 0 0 0 0 -39 -17 -52 -11 -2 -1 -1 -4 -8 -7 -3 -3 -2 -2 -1 0 -2 -1 -1 -2 -2 -3 -2 -1 -2 -2 -1 -2 -2
0 0 0 0 0 0 0 0 0 0 0 0 0 0 0 0 0 0 0 0 0 0 -14 -15 -3 -5 -2 -3 -1 -1 -5 -10 -2 -2 -2 -3 -1 -1 -4 -1 -2 -3 -7 -9 -5 -8 -3 -4 -3
0 0 0 0 0 0 0 0 0 0 0 0 0 0 0 0 0 0 0 0 0 0 0 -19 -13 -3 -8 -21 -6 -26 -16 -91 -7 -3 -6 -6 -6 -1 -1 -1 -3 -1 -20 -10 -18 -2 -5 -8 -2
0 0 0 0 0 0 0 0 0 0 0 0 0 0 0 0 0 0 -18 -40 -86 -65 -119 -83 -34 -6 -1 -1 -2 -5 -1 -2 -1 -3 -2 -2 -9 -3 -1 -1 -4 0 -9 -2 -3 -1 -2 -2 -3
0 0 0 0 0 0 0 0 0 0 0 0 0 0 0 0 0 -8 -31 -7 -17 -41 -65 -45 -41 0 -1 -3 -23 -7 -12 -3 -6 -2 -1 -10 -25 -19 0 0 -5 -2 -1 -2 -8 -8 -22 -49 -44
0 0 0 0 0 0 0 0 0 0 0 0 0 0 0 0 0 -5 -6 -23 -64 -28 -49 -48 -37 -45 -27 -9 -2 -8 -54 -4 -5 -4 -1 -11 -25 -26 -1 -1 -13 -30 -64 -95 -103 -72 -132 0 0
0 0 0 0 -1 0 0 0 0 0 0 0 0 0 0 0 -3 -7 -10 -21 -27 -17 -32 -44 -40 -28 -50 -43 -2 -32 -45 -80 -53 -53 -79 -50 -78 -80 -100 -114 -124 -148 -165 0 -39 -69 -136 0 0
0 0 0 0 0 -1 -4 -2 -4 0 0 0 0 0 -3 -7 -6 -5 -4 -28 -46 -36 -61 -37 -43 -38 -22 -36 -28 -81 -51 -35 -72 -134 -141 -128 -182 -205 -188 -198 -184 -172 -117 -159 -10 0 0 0 0
0 0 0 0 0 0 -4 -4 -10 -5 0 0 0 0 -4 -5 -4 -8 -3 -16 -40 -33 -13 -29 -49 -53 -86 -81 -32 -75 -50 -80 -99 -129 -144 -158 -137 -149 -194 -202 -161 -125 -104 -50 -19 -31 -36 -2 0
0 0 0 0 0 0 -2 -7 -8 -17 -7 -7 -3 -2 -1 -8 -8 -6 -11 -16 -65 -96 -47 -12 -82 -169 -163 -170 -127 -128 -152 -121 -128 -137 -133 -147 -137 -150 -177 -175 -161 -154 -79 -75 -65 -43 -24 -22 -25
0 0 0 0 0 0 -10 -7 -5 -35 0 -5 -1 -6 -2 -32 -31 -38 -119 -88 -74 -77 -108 -194 -268 -295 -316 -332 -306 -301 -301 -271 -229 -278 -218 -234 -81 0 0 0 0 0 0 -53 -44 -25 -36 -10 -2
0 0 -1 -7 -12 -7 -9 -8 -15 -7 0 0 -12 -17 -16 -34 -40 -63 -108 -146 -121 -111 -153 -243 -293 -356 -383 -394 -451 -410 -457 0 -57 -18 0 0 0 0 0 0 0 0 0 0 0 0 0 0 0
-7 0 -1 -13 -28 -20 -55 -18 -23 -62 -22 0 -19 -26 -25 -22 -43 -59 -105 -157 -171 -227 -268 -263 -357 -399 -411 -411 -409 -166 0 0 0 0 0 0 0 0 0 0 0 0 0 0 0 0 0 0 -1
0 -14 -9 -7 -10 -13 -42 -27 -9 -12 -32 -17 -21 -11 -20 -32 -47 -72 -94 -151 -219 -289 -349 -372 -398 -363 0 0 0 0 0 0 0 0 0 0 0 0 0 0 0 0 0 0 0 -1 -2 -1 -1
0 -9 -7 -7 -11 -12 -22 -58 -22 -45 -5 -15 -9 -4 -16 -32 -76 -111 -126 -202 -270 -216 -121 0 0 0 0 0 0 0 0 0 0 0 0 0 0 0 0 0 0 0 0 -1 -2 -2 -2 -1 -1
-14 -7 -7 -10 -24 -14 -9 -37 -4 0 -181 -5 -5 -6 -11 -45 -67 -90 -9 0 0 0 0 0 0 0 0 0 0 0 0 0 0 0 0 0 0 0 0 0 -2 -1 -1 -2 -2 -1 -3 -2 -2
Wind_Speed
29 27 28 28 26 25 35 33 31 20 20 17 22 25 25 25 24 14 13 13 8 9 15 18 17 16 17 18 18 18 16 15 14 14 14 14 14 13 13 14 17 19 20 21 22 22 22 22 23
26 25 25 29 30 33 32 31 23 24 23 22 26 24 24 19 17 13 9 9 7 7 10 15 16 17 17 17 18 17 16 16 14 13 13 12 13 13 14 15 18 20 20 19 19 19 19 19 20
24 23 30 30 36 37 34 29 23 21 21 25 24 20 23 20 15 15 11 5 5 6 8 9 14 14 16 16 17 16 15 14 13 12 12 12 12 12 13 15 15 13 14 14 15 15 16 16 17
19 23 30 39 40 37 41 34 22 22 22 22 23 26 18 17 20 15 8 2 3 4 7 8 11 12 14 15 17 17 15 13 12 11 10 10 10 11 12 12 12 11 10 12 12 12 13 13 14
23 25 35 38 44 44 36 36 22 24 28 25 22 27 20 15 14 11 6 2 1 3 4 6 9 9 11 13 15 16 14 13 12 12 11 10 9 9 9 9 8 8 9 10 10 10 11 11 11
24 28 40 43 42 37 42 32 35 35 30 26 26 26 23 11 12 7 4 5 2 0 2 6 4 5 7 8 10 10 12 11 9 9 9 9 8 7 6 6 6 7 8 9 8 9 9 9 9
28 27 41 43 41 37 33 32 30 33 32 29 26 25 15 15 11 7 6 5 5 2 1 3 5 3 2 3 4 6 8 9 8 7 7 8 7 5 4 4 5 6 7 8 8 8 8 8 9
30 36 41 40 41 40 30 30 30 33 35 26 26 24 25 13 8 8 9 7 6 6 4 3 3 5 3 2 1 2 4 4 3 4 4 5 5 4 3 4 4 5 6 7 8 8 9 9 10
25 37 41 38 37 36 34 30 27 31 33 25 23 24 22 20 13 9 10 8 7 7 6 5 5 4 3 3 2 1 1 2 3 4 3 3 3 2 2 2 2 4 6 7 7 8 9 11 10
26 33 38 34 34 36 32 32 31 30 28 28 27 21 23 20 16 14 14 13 10 8 8 7 6 6 6 3 3 4 4 5 4 3 3 3 4 4 3 4 4 6 7 8 8 8 9 10 10
25 37 30 34 32 31 32 32 28 32 32 27 25 24 19 20 19 16 14 14 13 11 9 8 7 8 7 6 5 6 6 7 5 4 4 5 5 6 6 7 7 8 7 10 8 10 10 10 11
32 32 36 36 27 31 35 35 36 33 35 32 28 24 20 21 22 18 16 17 15 15 12 11 8 9 9 8 7 7 8 8 8 7 6 7 9 9 10 10 11 10 11 12 13 14 14 16 19
31 33 29 32 34 32 33 36 36 36 33 31 33 23 23 25 24 26 21 32 21 20 17 17 13 12 11 11 10 10 10 9 8 7 7 9 9 10 10 14 15 15 14 15 17 19 20 20 20
30 32 36 31 31 32 35 38 36 35 32 33 33 35 28 25 23 23 30 34 22 21 18 12 10 8 9 10 11 12 12 10 11 9 7 8 11 12 13 13 16 17 17 19 20 20 21 21 21
31 32 30 33 31 32 32 40 41 37 34 32 32 34 33 29 26 19 21 32 30 21 11 43 7 6 9 8 10 9 11 12 11 13 11 11 11 14 15 17 18 18 18 19 21 22 22 22 23
27 30 36 30 26 28 27 39 32 27 31 34 32 32 32 29 26 20 14 17 21 28 19 16 4 6 10 9 10 13 14 15 13 12 12 13 15 15 15 18 20 20 22 22 22 23 24 24 26
23 32 29 29 17 22 22 31 26 26 28 30 31 30 34 30 25 25 13 10 12 16 19 13 11 16 9 10 14 15 18 22 24 10 12 13 13 17 18 18 20 23 23 23 24 25 26 28 29
26 26 31 22 15 19 26 29 27 28 26 28 30 30 31 29 27 25 21 12 10 12 10 13 12 16 12 12 14 12 15 15 16 13 15 16 19 21 21 21 22 23 23 23 25 26 27 29 31
25 28 26 20 19 21 27 29 29 27 27 27 26 26 26 26 25 22 24 14 14 14 10 8 12 13 15 15 18 17 15 15 15 15 16 18 18 22 21 24 23 22 25 27 27 29 31 31 31
28 25 21 20 21 23 27 28 26 25 22 22 23 22 23 21 22 21 25 25 26 18 18 17 14 14 21 21 25 18 18 17 16 17 17 18 20 19 18 22 24 24 26 28 29 28 32 33 32
24 20 21 24 17 20 28 32 27 24 19 17 19 15 13 13 18 24 23 28 19 18 14 16 19 23 23 25 21 16 19 20 20 20 18 17 17 17 17 20 24 26 26 29 30 29 30 35 32
23 19 24 23 25 29 25 30 16 17 15 15 13 11 10 4 11 10 15 20 29 34 31 27 25 24 20 20 20 19 19 20 17 16 15 15 17 19 20 19 20 22 25 28 31 29 29 31 35
22 16 18 21 23 28 28 24 25 13 16 14 12 4 3 16 3 6 8 5 8 13 16 20 18 14 13 13 16 15 17 13 13 14 14 17 16 17 19 22 24 27 29 30 31 33 34 33 36
19 20 21 24 25 31 30 29 22 14 19 13 6 2 5 2 5 8 4 2 7 5 8 7 6 9 10 12 8 9 12 14 14 15 18 16 18 17 19 22 25 28 31 33 34 35 36 36 36
17 18 20 23 27 30 29 28 23 9 15 13 13 2 5 10 5 3 3 6 4 2 2 4 4 6 6 7 10 11 12 12 15 18 20 23 24 26 27 30 31 32 34 37 38 39 39 39 38
19 17 21 22 23 24 26 25 20 7 10 11 10 8 5 2 1 2 2 2 2 1 2 4 4 5 5 7 11 12 15 17 20 21 24 26 28 31 32 34 35 38 39 40 40 41 41 40 40
18 22 24 35 31 25 23 22 10 10 10 7 6 5 4 2 2 1 1 2 2 2 3 6 7 8 10 11 13 15 17 20 24 25 28 30 33 35 36 39 41 42 42 43 43 42 41 41 42
36 14 18 28 31 32 17 19 25 5 8 9 7 7 5 3 1 1 2 2 4 4 4 7 10 12 14 15 16 18 21 24 27 30 33 35 36 38 41 43 43 44 44 44 43 43 41 41 41
17 23 23 23 29 29 31 21 7 16 7 6 6 5 4 3 4 4 4 5 5 6 8 10 12 15 17 18 21 24 26 29 32 34 35 37 38 40 42 43 45 45 45 44 43 42 42 43 43
16 17 21 18 25 34 31 26 25 19 17 2 4 2 5 3 2 2 4 4 6 8 11 13 17 19 20 22 24 28 31 33 36 37 38 39 41 40 42 43 44 45 45 43 41 42 43 42 42
Wind_Direction
273 276 275 272 272 272 261 262 267 285 289 290 288 277 282 282 285 297 316 323 52 74 102 110 103 98 97 105 108 109 103 98 92 86 80 76 74 73 72 73 81 84 87 86 94 94 91 87 84
273 275 275 265 265 262 264 261 280 274 286 290 286 283 276 288 302 316 335 345 65 69 95 106 104 104 102 103 108 109 107 104 97 89 83 76 76 79 81 83 89 94 92 84 86 82 78 76 76
270 272 263 261 259 260 261 266 272 276 290 282 285 292 286 290 316 299 320 21 63 68 96 94 104 100 101 102 108 108 107 102 96 91 84 82 81 83 87 89 84 69 66 66 73 68 68 68 70
271 266 265 257 257 258 253 261 279 280 285 286 287 279 293 299 292 300 314 23 45 66 99 100 105 100 101 104 110 112 108 103 98 91 80 78 76 83 88 85 79 63 48 57 60 59 59 63 64
264 265 259 258 256 254 261 260 285 273 278 283 292 280 290 301 307 306 302 286 341 86 84 112 111 100 102 104 109 112 111 107 104 101 93 82 77 85 84 78 60 43 42 50 52 50 47 49 55
261 259 256 256 260 263 259 268 267 268 275 281 287 284 286 313 305 304 290 274 285 273 76 122 123 103 100 101 106 107 110 108 99 96 87 82 81 81 76 60 49 42 41 43 42 39 33 32 35
258 258 257 261 263 264 266 265 264 267 270 274 283 283 296 300 292 284 285 270 264 269 291 133 140 137 106 101 103 105 107 107 100 90 83 81 79 77 67 48 34 16 18 21 19 16 12 8 5
258 260 262 261 263 264 272 265 269 269 269 278 281 276 284 306 270 278 281 270 258 256 254 233 153 144 147 145 186 107 96 89 68 49 51 56 71 59 15 2 15 18 9 4 360 357 350 346 344
262 261 259 262 265 268 267 271 274 274 270 276 279 271 289 289 323 280 276 268 254 253 245 236 229 216 168 155 236 233 279 305 332 350 358 9 41 18 354 343 345 344 341 350 350 345 341 336 335
258 260 261 266 270 268 267 271 272 269 270 270 271 278 284 286 282 275 270 266 256 248 244 236 235 235 239 226 240 248 262 277 299 323 336 337 339 332 318 314 314 316 319 325 329 333 332 331 333
260 260 269 267 270 272 272 269 273 268 266 269 270 273 281 277 272 271 269 263 254 245 239 237 233 243 240 250 259 255 263 273 283 290 306 309 319 320 311 318 310 308 305 313 311 318 320 321 322
261 266 265 266 275 269 268 270 269 270 267 271 272 274 286 284 273 265 265 258 239 224 229 235 220 237 245 256 261 254 261 266 277 278 282 296 301 306 307 305 308 311 309 310 311 311 314 314 313
264 265 272 270 270 272 272 269 270 269 271 271 269 277 272 281 281 273 276 271 260 209 209 212 207 211 228 255 260 264 265 268 275 276 275 287 297 302 307 304 304 306 308 306 308 306 308 310 310
268 267 268 272 273 273 271 270 271 271 272 269 268 267 272 278 280 276 269 267 277 272 254 226 216 228 223 232 258 263 269 269 274 276 277 279 292 300 303 305 304 303 304 304 305 308 309 309 311
262 272 272 268 272 273 276 272 270 273 273 271 267 266 267 269 271 275 273 270 272 279 265 238 185 212 244 235 252 257 266 271 265 273 281 286 288 296 299 300 300 301 301 303 305 308 309 310 310
267 267 268 271 268 270 270 271 280 281 274 270 267 266 264 261 260 263 273 281 286 281 300 302 308 238 248 254 257 268 282 276 263 270 278 284 290 294 297 295 295 299 301 303 305 308 309 312 311
266 263 265 271 271 273 265 277 285 286 281 277 270 267 263 255 254 256 251 266 279 285 289 298 282 273 265 278 271 273 290 282 251 296 289 286 288 292 292 294 296 297 299 303 305 307 308 309 309
261 264 266 262 266 273 276 277 285 288 286 283 275 268 265 251 245 247 246 251 266 266 288 305 300 278 281 277 280 284 284 291 294 296 289 297 299 293 289 291 295 299 301 306 306 309 309 309 310
266 266 261 268 272 278 281 283 282 288 286 283 281 274 268 252 241 242 244 248 256 261 255 278 275 279 274 280 274 281 290 297 303 305 297 294 295 298 308 292 297 299 299 302 307 309 310 310 312
265 266 265 275 278 283 285 284 289 289 294 292 291 282 271 247 236 242 245 252 259 263 256 263 277 278 272 287 279 281 283 294 298 301 301 294 298 295 303 301 303 307 306 305 304 310 310 310 313
258 261 266 270 280 280 286 282 283 283 291 297 300 288 273 240 242 249 246 242 250 258 255 268 279 282 278 278 286 298 290 291 290 286 290 299 300 299 311 309 305 308 310 308 308 309 311 308 313
258 261 268 273 273 273 291 276 290 283 286 290 297 292 277 236 264 251 252 246 256 254 259 272 276 278 278 282 283 283 289 288 291 292 293 298 299 302 306 315 316 315 314 311 309 311 309 310 309
261 268 267 270 271 275 274 280 288 283 287 290 289 285 283 164 233 168 154 204 242 263 274 248 257 267 281 285 282 284 285 289 295 298 303 303 309 313 314 312 312 311 309 309 309 308 308 308 307
261 267 272 272 270 266 267 267 278 283 289 293 291 211 152 275 217 189 226 242 272 275 269 251 236 258 274 293 306 303 302 302 302 304 303 308 310 314 315 312 311 310 308 308 308 307 306 304 303
248 261 263 261 258 264 260 260 269 294 299 320 303 259 280 290 295 70 287 264 264 159 206 240 250 273 281 293 297 302 301 306 306 306 306 304 306 307 308 308 307 308 308 308 308 307 305 304 301
242 246 258 256 260 268 261 262 276 287 294 320 332 306 290 284 86 111 117 106 138 124 277 265 261 274 288 296 300 307 307 305 302 304 303 303 305 306 307 307 307 307 307 307 306 306 304 303 302
241 243 256 257 269 274 277 258 285 269 295 311 319 323 306 289 278 147 92 94 102 91 306 288 290 295 298 307 311 308 309 304 302 304 303 303 303 304 305 306 306 306 306 306 306 305 304 303 302
246 247 246 256 257 260 262 263 265 224 256 283 287 293 297 294 259 276 292 303 309 312 318 306 300 301 303 306 307 307 306 304 303 303 303 304 304 305 305 305 306 306 306 306 306 304 304 303 302
232 248 259 261 256 261 254 260 312 296 295 284 283 284 284 281 284 282 286 296 300 304 306 305 304 303 303 304 305 305 304 303 304 304 305 305 306 306 306 306 306 306 306 306 305 303 303 301 300
232 241 254 255 260 259 262 271 280 265 249 329 314 285 293 287 305 316 311 304 304 307 308 306 304 305 307 308 307 304 303 303 303 305 306 307 306 308 307 307 307 307 306 305 304 302 301 301 301